Theta_e
330 337 341 337 347 343 339 336 332 343 344 341 339 337 340 341 333 337 341 344 344 345 343 348 344 345 347 345 344 342 335 332 331 337 342 343 342 344 345 344 344 345 345 345 346 346 345 346 346
329 337 340 336 344 342 338 333 339 343 343 338 338 340 342 343 341 343 344 345 343 339 345 347 344 345 344 342 342 343 340 334 334 336 335 340 340 340 341 341 340 342 343 346 346 344 343 341 341
331 338 340 343 339 341 336 331 342 341 336 334 341 338 341 343 341 342 341 337 335 339 344 347 344 345 344 344 343 340 336 331 332 335 333 336 339 338 336 334 327 330 340 339 340 343 343 342 339
332 331 328 339 335 331 328 334 341 336 327 335 340 343 333 329 333 338 342 335 337 341 345 346 341 344 344 340 342 337 337 337 332 330 329 324 325 322 319 318 316 315 322 329 333 338 343 342 340
330 329 334 331 324 321 320 331 335 328 328 331 336 343 339 326 336 336 342 336 340 341 341 345 344 344 341 340 339 339 338 338 336 333 332 329 325 326 318 313 316 318 315 312 314 322 334 344 343
341 329 335 332 323 320 319 323 321 322 321 327 341 341 336 327 342 344 342 340 339 340 340 347 343 342 340 340 338 340 341 337 338 338 338 335 331 332 331 327 329 329 329 325 315 313 318 328 338
340 335 334 328 324 321 321 317 319 320 320 327 331 340 330 333 343 345 344 345 344 341 341 346 345 344 340 341 342 341 340 343 343 343 342 342 340 337 336 337 335 334 334 334 330 326 314 318 329
333 330 327 324 324 325 318 319 317 318 320 318 319 338 339 334 337 343 344 345 344 340 340 343 343 340 340 341 341 342 342 342 341 341 341 339 337 340 339 338 338 339 339 340 338 334 333 326 319
323 334 331 329 324 325 318 320 318 317 321 320 319 323 324 321 325 333 335 336 338 339 340 344 343 342 342 342 342 342 339 338 336 337 337 336 335 335 337 336 337 335 335 336 334 331 329 327 326
330 335 333 325 323 323 319 320 320 321 322 323 321 319 319 317 326 336 337 336 335 337 341 344 343 342 341 341 339 335 328 320 317 316 317 316 321 321 322 322 323 329 331 331 330 329 329 329 328
327 336 325 323 322 320 321 320 318 320 322 323 325 323 317 316 321 329 330 332 331 339 340 342 342 339 337 332 321 316 312 310 309 308 307 307 307 307 307 307 306 307 309 311 316 320 321 321 324
328 322 323 323 321 321 321 319 319 318 319 315 321 320 315 316 320 322 323 322 321 326 331 330 328 327 323 316 311 308 306 305 304 303 304 304 304 304 304 304 304 304 304 304 304 305 307 310 312
324 323 320 319 319 318 318 318 319 319 314 316 317 316 313 313 313 312 316 313 313 316 316 314 314 314 311 309 306 305 304 303 302 302 302 303 303 303 303 303 302 302 303 303 303 304 305 306 305
320 320 319 318 319 318 319 317 317 316 313 315 316 316 311 310 310 308 309 308 308 309 309 309 308 308 307 306 306 304 302 302 302 301 302 302 301 301 301 301 301 301 302 302 302 302 303 304 304
318 321 317 318 318 319 317 317 319 314 313 315 314 314 310 308 306 309 308 308 309 308 307 307 307 306 306 306 304 303 302 302 302 302 301 301 301 300 300 300 300 300 300 300 300 301 301 303 303
318 317 324 317 318 317 316 322 315 313 314 315 313 311 310 307 306 306 306 307 307 307 307 306 306 306 305 303 303 303 302 302 302 302 301 301 300 300 300 299 299 299 299 299 299 300 300 302 302
315 325 319 319 317 318 317 319 315 312 313 314 312 310 309 308 305 304 306 307 307 307 306 306 306 305 304 304 304 304 303 303 302 302 302 301 301 301 300 299 299 298 298 298 298 299 299 300 301
324 317 314 317 316 318 318 319 316 313 313 315 312 310 308 308 306 304 305 306 306 306 306 306 305 304 304 304 304 304 304 303 303 302 302 301 301 301 300 300 299 298 298 298 298 298 299 300 300
316 316 316 314 314 318 318 317 318 315 313 314 313 310 308 307 306 304 304 305 305 306 306 305 305 305 305 304 304 304 304 303 303 302 302 301 301 300 300 299 299 298 298 297 297 298 299 299 300
317 316 316 315 316 318 317 318 318 314 314 313 313 311 309 306 305 304 303 304 304 305 305 305 305 305 305 305 305 305 305 304 303 303 302 301 300 299 299 299 298 298 297 298 298 297 299 299 300
316 316 315 317 316 315 316 318 316 313 312 312 311 311 310 308 307 305 304 303 304 305 305 305 305 305 305 305 305 305 305 304 303 302 302 300 299 299 298 298 298 297 297 298 297 298 298 298 299
318 316 317 317 318 319 314 319 315 311 314 311 311 309 309 308 306 305 304 303 304 305 305 305 305 304 305 305 305 305 304 303 302 302 301 299 299 298 298 297 297 297 297 297 298 297 298 298 298
317 315 316 315 315 315 315 316 314 312 315 312 309 309 307 306 307 305 304 304 303 305 305 305 304 304 304 305 305 304 304 303 301 300 299 299 299 298 297 296 296 296 297 297 297 297 297 297 297
314 312 312 313 314 316 313 313 314 313 311 309 308 307 308 306 305 304 302 302 303 304 304 303 303 304 304 304 304 303 302 301 299 298 298 298 297 296 296 296 296 296 296 296 296 296 296 296 296
312 316 319 315 317 315 312 313 314 310 308 306 306 307 308 306 305 305 304 302 302 303 303 303 303 304 304 304 303 302 300 298 298 298 297 296 296 296 296 295 295 295 295 295 295 295 295 295 295
313 316 317 315 315 317 311 316 314 307 305 305 306 307 307 306 304 304 303 303 302 303 303 303 303 303 303 302 300 298 298 298 297 296 296 295 295 295 294 294 294 294 294 294 294 294 294 294 294
313 316 310 311 306 310 311 309 309 306 306 304 304 305 304 304 303 303 302 301 301 302 302 303 303 302 300 298 298 298 298 297 296 295 295 295 294 294 294 294 294 293 293 293 293 294 294 294 294
311 309 313 311 314 310 310 309 313 309 307 304 304 304 303 303 303 302 301 300 300 301 301 301 300 299 298 298 298 297 297 296 295 295 294 294 294 293 293 292 292 293 293 293 293 293 293 293 294
310 310 307 308 308 313 312 311 305 307 305 304 303 302 303 303 302 301 300 299 299 300 299 298 298 298 298 298 298 297 296 295 294 294 293 293 292 292 292 292 292 292 292 293 293 293 293 293 294
306 308 308 313 309 305 308 312 305 303 303 303 302 302 302 302 302 300 299 298 299 298 298 297 297 298 298 297 296 295 295 294 293 293 292 291 291 291 292 292 292 292 292 293 293 293 293 293 294
Wind_Speed
7 2 8 3 3 4 2 2 1 2 1 1 2 4 7 4 2 5 1 8 2 12 11 7 5 7 7 7 8 8 9 9 8 7 8 9 8 9 10 11 10 11 12 12 12 11 9 9 9
5 4 3 3 4 3 1 1 3 2 7 8 7 5 3 4 0 4 3 7 9 14 11 8 7 8 6 7 7 6 7 8 8 7 7 7 8 9 8 8 9 9 9 11 11 10 9 7 7
0 1 3 4 3 3 3 1 5 4 3 1 4 4 3 3 1 3 4 11 14 13 11 9 8 7 5 6 6 5 4 7 7 7 7 6 6 7 7 7 7 7 8 8 8 8 8 7 5
1 3 3 3 3 1 2 5 6 7 0 2 4 6 2 1 1 3 10 13 13 12 10 8 8 7 4 5 5 5 6 6 6 6 6 6 5 6 6 7 8 8 7 6 5 6 7 6 5
4 2 4 4 1 1 2 4 8 4 2 2 1 5 4 1 3 7 14 13 12 12 10 8 8 7 5 4 5 6 5 5 5 5 5 6 6 7 7 8 10 10 9 8 6 4 5 7 7
2 2 3 4 3 1 1 5 4 3 2 3 4 6 3 3 4 12 13 12 10 11 10 8 6 7 4 4 6 6 4 7 7 7 7 7 6 7 8 8 9 10 11 10 9 7 5 4 6
4 3 4 5 6 3 5 7 3 4 3 2 5 4 1 2 8 13 13 11 11 10 9 8 7 6 7 5 5 4 6 5 5 5 3 4 4 4 5 6 7 8 9 10 10 10 8 6 5
4 4 4 3 6 4 6 5 3 4 4 2 0 5 4 4 11 15 14 13 12 11 10 10 9 8 7 6 6 7 7 5 7 9 10 9 8 3 4 7 8 7 7 7 9 9 9 8 7
3 4 3 7 7 3 8 4 1 1 4 2 1 1 3 13 14 16 14 11 10 10 10 10 9 10 11 9 3 5 9 9 10 9 9 10 12 11 8 7 9 12 8 6 7 8 8 8 8
2 3 7 5 5 4 7 4 10 6 4 1 1 3 8 11 12 16 13 14 11 11 12 10 8 7 10 13 9 10 11 13 13 13 12 13 12 12 10 10 10 8 9 8 7 8 9 9 10
2 4 5 4 4 5 6 4 4 7 4 7 8 12 12 11 10 14 13 15 15 13 13 12 10 11 14 14 15 15 16 16 16 15 14 13 13 13 13 12 13 13 12 12 10 10 10 11 11
2 3 2 4 5 5 7 8 4 5 1 1 8 17 12 13 13 14 13 14 18 17 16 16 16 16 17 18 18 18 17 16 16 15 14 13 14 14 15 14 14 14 14 13 14 13 12 12 12
3 2 4 4 5 5 7 2 1 5 1 7 15 13 13 12 12 10 13 15 17 19 18 17 17 17 18 18 18 17 16 15 15 14 14 14 15 15 13 14 14 15 14 14 15 14 14 12 13
4 4 4 2 3 4 3 1 1 2 6 10 12 12 12 14 16 13 14 15 15 19 18 18 17 17 17 17 15 16 15 15 15 16 15 14 14 14 14 15 15 15 15 16 16 16 15 14 14
4 5 2 1 2 2 4 2 6 4 9 12 11 11 11 13 14 18 18 18 20 19 19 18 18 16 14 14 14 15 15 14 15 15 13 13 13 14 14 14 14 15 15 16 16 15 15 14 14
3 4 3 1 4 1 2 5 1 8 13 13 12 11 11 12 17 14 18 19 20 21 20 18 16 14 13 14 14 13 13 13 13 12 12 12 13 13 13 14 14 14 15 16 16 17 17 14 14
4 3 3 3 2 3 3 4 1 6 9 11 12 12 12 11 12 14 18 20 21 20 19 17 15 14 14 13 12 11 10 9 10 10 10 10 11 13 15 15 15 15 16 17 17 16 17 16 16
3 1 2 4 2 1 2 10 5 5 11 13 12 12 12 14 16 20 20 21 20 18 17 16 16 14 13 12 10 8 6 5 6 6 7 8 9 12 14 16 17 18 19 18 18 18 15 14 16
4 3 3 1 1 1 3 7 13 7 8 11 12 13 14 14 14 16 19 21 20 19 19 18 17 15 13 11 9 6 4 2 1 2 4 5 7 10 12 15 17 17 19 20 20 18 16 16 13
3 3 3 1 2 2 3 12 10 2 5 8 13 14 15 11 11 15 17 20 23 22 20 19 17 15 12 9 7 5 3 4 4 3 4 5 7 9 12 15 18 18 20 18 18 16 13 12 11
2 3 3 3 1 2 5 6 3 1 2 3 6 8 12 16 16 13 18 20 22 22 22 20 17 14 12 10 8 6 5 6 6 5 6 6 9 12 14 15 17 19 20 19 20 17 12 14 14
3 1 3 3 2 2 3 4 3 4 4 5 7 4 8 14 12 12 17 17 24 24 20 19 17 15 12 11 11 9 8 8 7 9 9 10 13 15 17 18 19 19 19 18 17 16 16 14 18
3 3 3 2 3 1 2 1 4 4 5 9 8 7 4 8 12 13 18 18 18 20 19 18 17 15 13 13 13 11 11 10 11 10 11 14 17 19 21 21 22 20 19 18 20 21 20 20 21
7 4 5 3 2 0 1 2 2 3 5 9 9 9 2 4 7 8 6 13 15 16 16 15 14 15 15 14 13 12 11 9 9 11 14 18 21 23 24 23 23 23 22 22 21 21 21 22 23
3 4 2 2 1 3 1 1 3 5 5 5 10 9 5 4 1 2 5 4 8 12 14 14 14 14 13 12 11 9 7 6 9 13 16 19 19 21 24 25 23 22 22 23 23 23 24 25 26
2 4 4 3 2 2 1 4 1 3 5 7 6 6 9 8 5 4 0 5 9 11 12 12 12 11 11 8 6 4 4 8 12 16 18 19 20 21 25 25 24 24 25 25 25 24 24 23 23
3 2 2 5 2 1 2 3 2 3 6 10 11 11 9 7 6 6 6 4 2 3 4 6 9 8 6 4 2 3 8 13 15 17 19 22 23 23 21 24 26 27 25 25 24 24 25 24 24
1 5 2 2 2 3 2 3 3 1 5 7 10 11 10 9 10 8 9 7 5 3 2 3 3 4 3 0 5 10 13 15 16 19 21 22 23 25 26 26 25 25 24 24 24 24 24 24 24
2 1 5 3 1 2 2 3 3 2 1 3 4 6 7 8 8 6 6 6 6 4 3 3 4 2 1 6 10 13 15 16 18 21 22 24 25 24 25 25 25 25 24 24 25 25 26 26 27
2 3 3 3 3 1 0 4 1 3 1 4 5 4 4 4 4 5 5 5 3 2 0 1 1 3 6 10 13 14 16 18 20 21 23 25 25 25 25 25 25 24 25 25 25 27 26 27 28
Wind_Direction
343 86 143 93 60 62 60 79 285 122 129 18 97 111 96 40 60 107 282 179 193 161 154 146 143 135 110 83 82 76 68 60 68 65 68 57 55 55 50 47 45 52 52 57 55 59 64 72 68
336 142 100 88 82 81 319 266 145 162 127 124 90 95 66 73 55 123 116 153 146 153 147 146 143 126 107 82 95 88 57 56 62 64 71 62 54 48 50 45 42 44 44 46 47 59 60 60 63
76 143 87 84 100 132 165 159 133 125 148 168 109 53 111 117 124 146 133 144 147 155 149 150 148 134 112 95 92 99 61 61 65 66 65 73 62 51 47 43 42 37 37 39 48 50 44 48 48
134 19 61 75 104 180 190 150 148 150 151 83 124 96 109 89 220 110 152 152 153 152 150 150 153 139 122 107 101 75 80 69 68 63 57 60 61 49 46 47 47 47 44 30 28 30 35 32 29
52 56 71 88 127 198 210 165 160 156 126 130 190 153 119 105 299 184 156 155 152 149 149 146 145 143 135 121 115 90 63 69 71 63 53 46 47 44 47 53 55 48 43 36 29 15 9 15 15
56 91 89 156 184 183 179 171 158 151 120 132 120 129 152 342 141 148 150 149 151 152 151 146 141 126 112 116 113 118 81 74 73 63 53 44 37 40 43 44 40 35 32 29 27 23 14 359 2
120 88 144 153 171 179 183 160 172 152 151 182 136 137 143 47 141 151 148 142 147 152 153 150 151 141 139 122 114 103 115 97 62 47 66 45 34 36 38 31 32 27 22 23 20 18 15 4 349
110 92 121 196 183 204 164 129 128 158 191 94 151 181 181 167 153 154 148 147 151 155 162 167 164 152 143 120 110 100 101 97 81 69 67 64 49 75 45 26 17 11 4 9 13 12 10 3 356
139 81 174 189 162 190 156 141 126 86 130 99 45 158 139 141 145 140 132 124 128 149 167 167 166 165 159 144 145 79 88 87 81 73 70 68 64 66 69 57 57 34 25 2 351 350 349 349 346
101 133 206 183 180 172 166 175 158 162 151 162 111 95 139 146 157 146 148 134 119 121 147 157 157 141 140 120 118 99 97 87 80 76 71 67 65 65 62 56 43 34 33 29 15 0 353 348 350
167 171 161 168 158 138 139 131 151 149 202 193 191 165 157 154 145 135 134 134 133 132 134 144 146 137 128 123 114 104 94 88 80 74 67 64 61 56 51 42 35 28 23 21 11 5 357 353 352
126 62 134 146 138 130 159 131 175 202 182 268 175 157 156 159 153 144 142 136 133 129 129 132 130 127 122 118 108 100 91 81 74 69 66 59 57 53 45 38 31 26 23 17 11 3 354 348 344
102 135 67 89 98 96 125 123 257 232 84 126 138 154 157 156 151 145 143 139 135 130 131 129 128 124 121 115 107 97 85 76 71 67 62 58 55 46 35 29 24 21 16 10 4 359 355 349 340
135 106 124 121 129 135 126 150 23 156 134 138 152 163 166 166 162 148 155 150 142 138 137 133 127 124 122 115 108 96 85 77 72 68 63 57 46 42 36 32 26 18 11 2 356 352 347 343 337
117 103 82 137 179 128 132 252 234 157 156 160 171 171 173 178 171 173 166 157 154 148 142 137 134 131 130 123 115 103 88 82 76 68 64 56 48 41 35 29 20 14 5 358 354 347 342 336 331
95 59 159 157 160 71 183 253 235 165 164 183 184 182 185 187 190 180 169 162 160 156 152 147 144 143 136 131 125 111 94 83 78 72 65 56 48 40 32 25 15 7 1 355 349 345 339 335 332
12 170 196 304 208 131 191 259 155 172 189 195 197 193 190 192 202 191 180 174 171 166 161 156 153 149 145 139 133 120 101 88 79 71 61 51 40 31 21 14 6 359 354 350 344 337 333 325 322
177 185 259 247 158 143 182 261 248 196 205 214 206 204 199 197 198 195 188 184 179 176 171 166 161 158 154 150 148 140 127 105 83 62 48 39 26 15 7 1 355 349 345 343 341 334 328 320 321
120 130 234 222 73 234 241 271 276 225 220 225 217 211 210 209 202 195 190 189 187 187 183 181 175 173 170 168 173 186 190 179 102 29 20 12 2 354 349 346 342 339 337 335 334 329 325 325 325
141 165 247 331 69 200 350 288 288 237 248 230 228 217 212 203 200 193 191 191 193 192 192 192 190 191 191 198 199 198 219 240 266 284 327 328 333 331 331 331 332 331 328 325 326 324 317 310 318
136 177 185 215 346 78 324 288 348 10 300 296 261 238 212 203 200 191 193 198 199 201 201 202 203 207 211 214 218 226 259 273 276 282 303 310 318 320 321 321 321 320 319 315 316 313 303 301 302
178 254 127 103 62 270 358 285 306 342 322 19 5 245 219 200 203 197 197 200 206 210 211 215 217 219 223 228 232 243 260 273 282 296 301 310 316 318 319 318 316 313 311 305 303 301 292 286 290
144 67 74 80 101 9 27 185 277 351 336 345 353 357 231 211 204 203 205 209 213 214 218 223 226 230 233 237 241 254 269 275 284 294 302 309 311 314 315 316 314 313 309 303 298 295 288 282 281
143 82 52 59 90 218 292 188 302 357 309 311 332 353 358 187 206 221 222 225 226 224 227 231 234 236 236 237 245 261 272 279 288 300 306 311 312 314 316 316 311 308 303 300 298 293 286 283 280
78 68 321 335 13 226 10 175 281 305 328 306 320 345 32 65 81 239 236 238 236 232 231 235 237 235 230 236 251 262 267 284 297 306 309 311 313 313 314 311 306 304 302 300 296 290 283 281 278
112 155 167 242 221 288 69 237 140 305 354 22 35 54 58 54 53 54 332 237 237 234 233 234 230 221 225 238 244 250 285 301 305 309 310 310 309 306 308 306 303 301 299 297 295 290 285 282 280
164 162 138 106 53 262 270 276 315 18 45 32 36 50 45 49 45 45 49 61 98 155 192 206 208 212 210 199 199 299 309 311 312 311 311 311 308 307 306 302 299 299 297 294 292 286 282 279 279
148 135 109 37 203 253 270 271 184 124 27 26 44 45 45 44 45 45 48 55 70 96 142 166 173 162 149 130 320 318 317 314 313 313 311 309 308 308 306 304 301 299 296 293 290 283 280 277 276
104 107 57 109 126 207 284 259 211 183 67 68 57 62 63 54 45 43 44 48 56 67 93 116 124 128 329 321 319 317 315 313 312 311 313 313 310 308 306 304 301 298 295 293 289 284 281 277 275
127 155 144 141 195 77 134 269 91 88 77 133 99 75 54 48 46 40 34 24 11 2 233 193 229 300 316 319 319 315 312 315 317 316 315 316 311 310 306 302 297 294 292 291 287 284 281 278 276